Regional Weather Roundup
Issued by NWS

Home | Current Version | Previous Version | Graphics & Text | Print | Product List | Glossary On
Versions: 1 2 3 4 5 6 7 8 9 10 11 12 13 14 15 16 17 18 19 20 21 22 23 24 25 26 27 28 29 30 31 32 33 34 35 36 37 38 39 40 41 42 43 44 45 46 47 48 49 50
000
ASUS43 KBIS 280820
RWRND

NORTH DAKOTA REGIONAL WEATHER ROUNDUP
NATIONAL WEATHER SERVICE BISMARCK ND
300 AM CDT SAT MAR 28 2015

NOTE: "FAIR" INDICATES FEW OR NO CLOUDS BELOW 12,000 FEET WITH NO
SIGNIFICANT WEATHER AND/OR OBSTRUCTIONS TO VISIBILITY.


NDZ001>003-009>011-017-280900-
NORTHWEST NORTH DAKOTA

CITY           SKY/WX    TMP DP  RH WIND       PRES   REMARKS
WILLISTON      CLEAR     39  35  86 E5        29.90F
MINOT          CLEAR     27  25  92 NE5       29.95F
MINOT AFB      CLEAR     27  27 100 E6        29.95F
$$

NDZ018>021-031>035-040>046-280900-
SOUTHWEST NORTH DAKOTA

CITY           SKY/WX    TMP DP  RH WIND       PRES   REMARKS
BISMARCK       FOG       30  30 100 SE7       29.98S VSB 1/2
DICKINSON      CLEAR     34  29  82 S9        29.90F
GARRISON         N/A     29  26  89 CALM      29.94F
HETTINGER ARPT CLEAR     30  27  88 CALM      29.94F
$$

NDZ004>008-012>016-024-026-027-054-280900-
NORTHEAST NORTH DAKOTA

CITY           SKY/WX    TMP DP  RH WIND       PRES   REMARKS
GRAND FORKS    CLEAR     22  19  89 SE8       30.10S WCI  12
GRND FRKS AFB  PTCLDY    23  20  89 SE8       30.08F WCI  14
DEVILS LAKE    CLOUDY    28  25  86 S13       30.01F WCI  18
$$

NDZ022-023-025-028>030-036>039-047>053-280900-
SOUTHEAST NORTH DAKOTA

CITY           SKY/WX    TMP DP  RH WIND       PRES   REMARKS
FARGO          CLEAR     27  17  66 SE7       30.11S WCI  19
JAMESTOWN      CLOUDY    28  26  92 SE14      30.03S WCI  17
$$




USA.gov is the U.S. government's official web portal to all federal, state and local government web resources and services.